{"data":{"norad_id":53636,"intl_designator":"2022-104BA","name":"STARLINK-4586","alt_names":[],"object_type":"PAYLOAD","status":"ACTIVE","operator":null,"country":"US","launch_date":"2022-08-28","launch_site_code":"AFETR","launch_vehicle":null,"mission":null,"orbit_class":"UNKNOWN","rcs_meters":null,"size_class":null,"mass_kg":null,"dimensions":null,"purposes":["comms"],"wikipedia_slug":null,"has_3d_model":false,"image_url":null,"decayed_at":null,"tle_current":{"epoch":"2026-09-20T23:11:20.797152Z","epoch_age_seconds":41419,"freshness":"FRESH","line1":"1 53636U 22104BA  26263.96621293  .00001918  00000+0  67952-4 0  9990","line2":"2 53636  53.1650  59.2372 0001183  76.3671 283.7463 15.34371216225810","mean_motion":15.34371216,"eccentricity":0.0001183,"inclination_deg":53.165,"raan_deg":59.2372,"arg_perigee_deg":76.3671,"mean_anomaly_deg":283.7463,"bstar":6.7952e-5,"rev_number":22581,"period_min":93.8495186161,"perigee_km":461.97951213709,"apogee_km":463.59807517987,"semimajor_km":6840.9257936585,"source":"CELESTRAK","updated_at":"2026-09-21T09:00:32.946098Z"}}}